Location: Melara
(45.0500°N, 11.1833°E)
Time: 09:31:43
(UTC+00:00)

UKube-1 - Pass Details

Date: 02 June 2024
Orbit: 582 x 590 km, 98.3° (Epoch: 16 June)

Event Time Altitude Azimuth Distance (km) Brightness Sun altitude
Rises 00:24:38 0° 15° (NNE) 2,815 ? -20.8°
Reaches altitude 10° 00:26:48 10° 16° (NNE) 1,910 ? -20.7°
Maximum altitude 00:30:57 78° 102° (ESE) 601 ? -20.4°
Enters shadow 00:31:46 55° 175° (S) 701 ? -20.4°
